Wind_Speed
94 89 86 85 81 71 61 39 28 22 19 21 24 25 26 27 30 31 33 31 30 30 29 29 27 26 28 27 26 24 12 7
97 81 77 75 67 53 35 24 20 22 21 22 25 27 31 32 32 33 33 32 31 29 28 28 29 28 27 26 24 22 21 7
80 70 66 58 46 33 24 24 25 27 27 27 30 31 32 36 35 35 33 32 30 29 29 28 27 26 27 24 24 22 18 14
67 64 52 44 36 29 27 30 31 33 33 33 35 37 40 39 40 37 34 35 35 34 32 30 29 26 26 26 23 21 20 15
47 46 39 31 31 32 34 37 38 39 40 41 42 43 43 41 40 39 40 40 36 36 36 34 30 29 28 28 28 25 21 20
38 34 33 33 37 38 39 41 44 48 51 49 48 47 43 45 44 44 44 43 43 43 41 39 39 38 37 36 34 34 32 29
35 34 38 39 43 43 44 46 49 52 48 49 50 50 49 47 48 47 47 47 47 46 45 44 43 41 41 41 42 42 40 36
35 39 45 48 50 48 49 51 53 50 47 48 49 50 49 47 47 47 49 50 50 50 50 50 49 49 49 49 47 44 44 44
39 38 46 53 56 52 52 51 51 47 48 51 51 48 49 50 51 52 51 50 51 53 54 56 56 56 56 54 52 52 49 46
18 46 50 58 57 52 47 48 50 51 52 49 51 54 54 56 55 55 54 55 57 59 59 57 57 57 57 55 55 55 55 55
30 49 56 58 49 46 50 52 53 52 53 54 59 57 57 58 60 60 59 58 59 60 60 60 62 64 64 63 66 65 65 64
34 40 49 49 48 50 48 49 53 57 59 56 60 61 62 62 63 65 65 64 64 66 66 67 70 70 72 73 75 75 73 71
42 45 50 47 45 50 57 59 59 57 60 61 65 66 67 66 67 68 69 71 73 74 75 77 79 81 81 82 81 82 81 83
45 46 51 51 53 58 59 61 63 63 66 67 67 67 69 73 74 75 77 79 82 85 87 87 87 89 91 92 93 89 91 93
49 50 51 57 59 60 64 65 67 68 70 71 68 73 77 80 82 84 88 90 94 96 96 99 98 97 102 104 102 101 101 103
53 54 57 64 64 62 65 68 71 73 73 73 78 83 87 89 92 94 96 98 102 105 108 110 112 110 109 112 116 119 117 110
55 57 63 66 67 68 70 70 71 75 79 81 85 90 94 97 99 103 104 107 110 114 115 118 121 122 123 124 125 120 118 113
60 65 65 68 69 73 75 78 83 86 89 91 94 98 101 105 110 113 116 118 121 121 125 127 127 131 132 126 122 116 108 106
64 69 72 73 72 75 81 85 90 93 95 99 102 104 110 115 118 123 124 127 129 130 134 137 134 132 129 118 109 103 100 97
65 72 75 77 79 80 84 89 94 98 102 107 110 114 119 122 125 130 132 133 134 135 134 129 122 114 111 105 101 99 96 97
Wind_Direction
288 290 293 297 303 303 302 297 290 295 309 313 317 324 325 328 328 327 327 329 332 335 336 337 340 344 348 357 5 8 357 253
291 296 298 300 302 299 292 292 298 301 304 307 310 314 315 317 319 317 318 319 321 325 325 326 328 331 332 340 350 359 7 330
287 294 299 300 296 288 282 285 288 296 302 304 304 307 307 310 311 311 313 314 311 315 314 311 309 312 316 324 330 337 348 1
296 298 296 299 299 292 292 292 301 302 304 304 302 303 303 303 305 306 306 309 308 312 312 311 307 304 305 305 311 316 321 326
294 296 296 294 296 290 288 289 293 300 298 298 297 298 297 295 296 298 299 303 303 303 306 308 304 303 302 301 301 302 301 299
294 293 294 291 284 283 289 293 291 288 296 297 298 295 294 293 294 297 299 300 303 304 305 303 302 300 300 299 298 299 298 293
292 292 293 290 290 290 292 293 294 294 295 295 294 293 293 292 295 299 300 301 301 300 301 299 299 298 297 295 295 295 291 288
294 304 292 291 289 290 289 288 291 292 292 292 297 296 296 296 296 297 298 298 299 300 300 298 297 296 295 293 289 283 280 280
320 287 282 293 291 290 287 288 290 291 291 295 297 294 294 293 294 295 296 298 297 296 296 297 297 297 296 294 292 289 282 273
34 296 297 288 287 289 291 291 293 294 294 294 294 295 296 296 296 297 296 296 296 298 295 293 294 294 293 291 290 286 281 280
231 262 282 284 290 293 293 294 295 295 295 298 297 299 297 300 300 298 298 299 299 298 294 293 294 293 290 287 289 287 282 277
283 277 283 286 294 296 295 296 295 296 296 299 299 300 298 299 299 298 296 295 294 293 292 293 292 290 289 287 287 287 284 279
293 293 293 293 292 295 299 298 298 296 297 298 299 299 297 298 297 295 292 292 292 292 292 291 291 290 288 288 286 284 284 282
300 299 297 296 299 300 299 299 299 300 301 299 298 297 297 298 296 294 292 291 291 293 292 291 291 289 288 287 286 285 284 283
297 296 293 298 300 302 301 302 301 299 299 298 297 297 297 295 296 296 296 295 293 293 292 292 291 290 288 288 288 287 283 281
297 295 295 299 304 301 301 302 300 299 299 297 296 298 297 297 297 296 294 293 294 293 293 292 293 293 291 291 292 290 287 283
296 296 298 301 302 302 304 303 302 300 299 298 298 298 298 296 295 296 296 295 293 294 295 296 296 296 295 294 293 290 287 282
301 301 302 302 304 302 302 303 303 303 301 300 299 298 297 296 296 297 296 297 298 298 297 297 296 296 296 295 293 290 286 285
306 306 305 303 301 299 301 301 301 300 300 299 299 298 298 296 296 297 297 297 297 299 297 297 297 297 295 292 291 288 286 283
307 305 304 303 301 299 297 298 299 300 299 300 298 298 298 299 299 299 299 298 297 298 297 296 295 294 293 292 290 288 285 282
Height
10759 10752 10745 10738 10731 10725 10720 10713 10711 10708 10702 10698 10695 10691 10686 10682 10676 10673 10670 10666 10662 10658 10654 10650 10647 10644 10642 10641 10639 10636 10633 10631
10747 10739 10733 10727 10721 10717 10711 10708 10705 10703 10698 10695 10691 10689 10684 10678 10674 10671 10667 10663 10659 10655 10651 10647 10644 10642 10641 10639 10639 10637 10634 10631
10731 10726 10721 10717 10714 10708 10705 10704 10699 10697 10693 10689 10687 10684 10680 10673 10671 10666 10663 10660 10656 10653 10648 10645 10641 10639 10637 10636 10636 10636 10634 10633
10721 10716 10712 10709 10707 10703 10698 10698 10694 10691 10686 10683 10681 10678 10674 10670 10663 10660 10656 10653 10650 10647 10644 10642 10638 10636 10633 10632 10633 10632 10631 10632
10711 10710 10708 10702 10701 10696 10692 10690 10688 10683 10678 10675 10672 10669 10665 10661 10656 10651 10647 10644 10644 10640 10636 10634 10634 10631 10630 10628 10626 10627 10627 10627
10705 10705 10701 10696 10694 10691 10686 10682 10679 10676 10670 10665 10661 10658 10655 10651 10647 10644 10641 10638 10634 10631 10629 10627 10624 10624 10623 10622 10621 10620 10620 10621
10703 10698 10694 10690 10687 10683 10678 10673 10670 10665 10660 10654 10651 10648 10645 10642 10638 10634 10631 10628 10626 10623 10620 10618 10617 10615 10614 10613 10612 10611 10611 10612
10700 10695 10688 10680 10677 10674 10668 10663 10660 10656 10651 10646 10643 10639 10635 10632 10629 10624 10620 10616 10612 10609 10607 10605 10604 10603 10602 10600 10600 10600 10599 10598
10689 10684 10676 10672 10669 10662 10658 10652 10649 10646 10641 10638 10633 10628 10624 10620 10616 10611 10608 10604 10601 10598 10596 10593 10591 10589 10587 10586 10585 10583 10583 10585
10688 10663 10662 10664 10664 10652 10647 10643 10639 10635 10630 10627 10621 10615 10612 10607 10602 10598 10595 10592 10588 10586 10583 10581 10578 10576 10573 10571 10570 10569 10568 10567
10692 10682 10665 10658 10650 10645 10638 10633 10628 10624 10619 10617 10608 10606 10600 10596 10591 10586 10581 10578 10574 10570 10568 10564 10562 10560 10558 10556 10554 10553 10552 10551
10675 10672 10658 10650 10644 10631 10628 10625 10619 10615 10606 10605 10595 10592 10585 10582 10577 10571 10566 10562 10557 10553 10551 10548 10544 10541 10538 10536 10533 10531 10530 10531
10656 10652 10641 10635 10630 10624 10617 10612 10608 10602 10594 10590 10584 10578 10568 10565 10560 10555 10549 10542 10538 10534 10530 10527 10524 10517 10515 10514 10512 10509 10507 10502
10641 10637 10627 10621 10620 10615 10606 10599 10593 10588 10581 10573 10567 10561 10554 10546 10539 10535 10529 10520 10514 10509 10505 10502 10500 10492 10486 10482 10484 10488 10479 10476
10631 10626 10619 10611 10608 10602 10594 10586 10578 10571 10562 10556 10550 10542 10535 10525 10519 10513 10505 10495 10487 10482 10475 10469 10469 10466 10452 10443 10445 10448 10447 10445
10619 10615 10608 10598 10593 10588 10580 10573 10564 10555 10549 10542 10532 10522 10510 10502 10491 10483 10475 10469 10458 10451 10443 10434 10427 10426 10422 10412 10404 10396 10399 10411
10608 10604 10597 10589 10580 10570 10563 10557 10549 10538 10529 10521 10510 10497 10487 10475 10465 10456 10446 10437 10425 10413 10407 10396 10387 10381 10377 10372 10362 10357 10342 10335
10596 10589 10587 10577 10569 10558 10546 10537 10527 10517 10507 10498 10486 10476 10462 10447 10436 10425 10413 10401 10389 10382 10368 10361 10354 10342 10330 10320 10314 10308 10303 10290
10584 10575 10566 10558 10556 10544 10531 10521 10508 10496 10485 10473 10463 10450 10434 10419 10409 10394 10383 10371 10357 10348 10334 10316 10311 10299 10288 10278 10274 10268 10261 10257
10571 10558 10547 10539 10530 10525 10514 10502 10489 10475 10461 10448 10436 10422 10405 10391 10378 10363 10349 10338 10322 10311 10295 10282 10267 10256 10246 10241 10238 10231 10226 10222